"Sample Date","Sample Time","Sensor Name","Sample Value","Units","Flow Rate","Sample Interval","Sample Volume","Laser Status","Number Channels","Micron Size 0","Counts/Channel 0","Micron Size 1","Counts/Channel 1","Micron Size 2","Counts/Channel 2","Micron Size 3","Counts/Channel 3","Micron Size 4","Counts/Channel 4","Micron Size 5","Counts/Channel 5","Micron Size 6","Counts/Channel 6","Micron Size 7","Counts/Channel 7","Micron Size 8","Counts/Channel 8","Micron Size 9","Counts/Channel 9","Micron Size 10","Counts/Channel 10","Micron Size 11","Counts/Channel 11","Micron Size 12","Counts/Channel 12","Micron Size 13","Counts/Channel 13","Micron Size 14","Counts/Channel 14","Micron Size 15","Counts/Channel 15","Micron Size 16","Counts/Channel 16","Micron Size 17","Counts/Channel 17","Micron Size 18","Counts/Channel 18","Micron Size 19","Counts/Channel 19","Micron Size 20","Counts/Channel 20","Micron Size 21","Counts/Channel 21","Micron Size 22","Counts/Channel 22","Micron Size 23","Counts/Channel 23","Micron Size 24","Counts/Channel 24","Micron Size 25","Counts/Channel 25","Micron Size 26","Counts/Channel 26","Micron Size 27","Counts/Channel 27","Micron Size 28","Counts/Channel 28","Micron Size 29","Counts/Channel 29","Micron Size 30","Counts/Channel 30","Micron Size 31","Counts/Channel 31"
"07/05/06","19:00:01","AMMA06",44653.000,"cc",28336.625,6.00,2833.663,1,6,0.100,23901.000,0.200,17166.000,0.300,2441.000,0.500,708.000,1.000,437.000,5.000,0
"07/05/06","19:00:07","AMMA06",46416.000,"cc",28305.078,6.00,2830.508,1,6,0.100,24420.000,0.200,17885.000,0.300,2804.000,0.500,854.000,1.000,453.000,5.000,0
"07/05/06","19:00:13","AMMA06",46178.000,"cc",28310.566,6.00,2831.057,1,6,0.100,24379.000,0.200,17500.000,0.300,2870.000,0.500,942.000,1.000,487.000,5.000,0
"07/05/06","19:00:19","AMMA06",44725.000,"cc",28301.844,6.00,2830.185,1,6,0.100,23999.000,0.200,17262.000,0.300,2385.000,0.500,653.000,1.000,426.000,5.000,0
"07/05/06","19:00:25","AMMA06",44787.000,"cc",28351.744,6.00,2835.175,1,6,0.100,24137.000,0.200,17058.000,0.300,2448.000,0.500,714.000,1.000,430.000,5.000,0
"07/05/06","19:00:31","AMMA06",44074.000,"cc",28315.006,6.00,2831.501,1,6,0.100,23793.000,0.200,17004.000,0.300,2336.000,0.500,590.000,1.000,351.000,5.000,0
"07/05/06","19:00:37","AMMA06",44111.000,"cc",28340.815,6.00,2834.082,1,6,0.100,23691.000,0.200,17084.000,0.300,2385.000,0.500,569.000,1.000,382.000,5.000,0
"07/05/06","19:00:43","AMMA06",44149.000,"cc",28307.494,6.00,2830.750,1,6,0.100,23695.000,0.200,17126.000,0.300,2340.000,0.500,611.000,1.000,377.000,5.000,0
"07/05/06","19:00:49","AMMA06",46368.000,"cc",28342.152,6.00,2834.215,1,6,0.100,24551.000,0.200,17776.000,0.300,2710.000,0.500,865.000,1.000,466.000,5.000,0
"07/05/06","19:00:55","AMMA06",49267.000,"cc",28321.479,6.00,2832.148,1,6,0.100,25799.000,0.200,18338.000,0.300,3357.000,0.500,1194.000,1.000,579.000,5.000,0
"07/05/06","19:01:01","AMMA06",47400.000,"cc",28333.930,6.00,2833.393,1,6,0.100,24977.000,0.200,17953.000,0.300,3003.000,0.500,978.000,1.000,489.000,5.000,0
"07/05/06","19:01:07","AMMA06",44601.000,"cc",28291.352,6.00,2829.135,1,6,0.100,23910.000,0.200,17108.000,0.300,2475.000,0.500,686.000,1.000,422.000,5.000,0
"07/05/06","19:01:13","AMMA06",43596.000,"cc",28245.543,6.00,2824.554,1,6,0.100,23580.000,0.200,16830.000,0.300,2225.000,0.500,575.000,1.000,386.000,5.000,0
"07/05/06","19:01:19","AMMA06",44947.000,"cc",28323.648,6.00,2832.365,1,6,0.100,23975.000,0.200,17271.000,0.300,2510.000,0.500,725.000,1.000,466.000,5.000,0
"07/05/06","19:01:25","AMMA06",44909.000,"cc",28319.459,6.00,2831.946,1,6,0.100,24130.000,0.200,17122.000,0.300,2493.000,0.500,735.000,1.000,429.000,5.000,0
"07/05/06","19:01:31","AMMA06",46181.000,"cc",28331.104,6.00,2833.111,1,6,0.100,25135.000,0.200,17452.000,0.300,2510.000,0.500,719.000,1.000,365.000,5.000,0
"07/05/06","19:01:37","AMMA06",47029.000,"cc",28300.311,6.00,2830.031,1,6,0.100,25863.000,0.200,17561.000,0.300,2497.000,0.500,689.000,1.000,419.000,5.000,0
"07/05/06","19:01:43","AMMA06",46805.000,"cc",28308.500,6.00,2830.850,1,6,0.100,25282.000,0.200,17325.000,0.300,2799.000,0.500,904.000,1.000,495.000,5.000,0
"07/05/06","19:01:49","AMMA06",46292.000,"cc",28339.664,6.00,2833.967,1,6,0.100,24637.000,0.200,17442.000,0.300,2796.000,0.500,930.000,1.000,487.000,5.000,0
"07/05/06","19:01:55","AMMA06",44286.000,"cc",28324.170,6.00,2832.417,1,6,0.100,23822.000,0.200,16923.000,0.300,2424.000,0.500,708.000,1.000,409.000,5.000,0
"07/05/06","19:02:01","AMMA06",45368.000,"cc",28325.184,6.00,2832.519,1,6,0.100,24594.000,0.200,16957.000,0.300,2643.000,0.500,737.000,1.000,437.000,5.000,0
"07/05/06","19:02:07","AMMA06",47501.000,"cc",28353.365,6.00,2835.337,1,6,0.100,25636.000,0.200,17788.000,0.300,2754.000,0.500,870.000,1.000,453.000,5.000,0
"07/05/06","19:02:13","AMMA06",46506.000,"cc",28296.795,6.00,2829.680,1,6,0.100,25005.000,0.200,17492.000,0.300,2690.000,0.500,829.000,1.000,490.000,5.000,0
"07/05/06","19:02:19","AMMA06",45893.000,"cc",28344.176,6.00,2834.418,1,6,0.100,24825.000,0.200,17200.000,0.300,2661.000,0.500,792.000,1.000,415.000,5.000,0
"07/05/06","19:02:25","AMMA06",48448.000,"cc",28288.727,6.00,2828.873,1,6,0.100,26703.000,0.200,17895.000,0.300,2634.000,0.500,751.000,1.000,465.000,5.000,0
"07/05/06","19:02:31","AMMA06",46553.000,"cc",28300.121,6.00,2830.012,1,6,0.100,25602.000,0.200,17369.000,0.300,2502.000,0.500,669.000,1.000,411.000,5.000,0
"07/05/06","19:02:37","AMMA06",45394.000,"cc",28325.381,6.00,2832.538,1,6,0.100,24399.000,0.200,17287.000,0.300,2593.000,0.500,700.000,1.000,415.000,5.000,0
"07/05/06","19:02:43","AMMA06",46063.000,"cc",28298.764,6.00,2829.877,1,6,0.100,24679.000,0.200,17335.000,0.300,2700.000,0.500,891.000,1.000,458.000,5.000,0
"07/05/06","19:02:49","AMMA06",45807.000,"cc",28313.857,6.00,2831.386,1,6,0.100,24504.000,0.200,17443.000,0.300,2607.000,0.500,775.000,1.000,478.000,5.000,0
"07/05/06","19:02:55","AMMA06",48389.000,"cc",28328.549,6.00,2832.855,1,6,0.100,26527.000,0.200,17997.000,0.300,2610.000,0.500,761.000,1.000,494.000,5.000,0
"07/05/06","19:03:01","AMMA06",44460.000,"cc",28330.328,6.00,2833.033,1,6,0.100,23864.000,0.200,17032.000,0.300,2447.000,0.500,690.000,1.000,427.000,5.000,0
"07/05/06","19:03:07","AMMA06",45892.000,"cc",28313.922,6.00,2831.392,1,6,0.100,24400.000,0.200,17323.000,0.300,2809.000,0.500,863.000,1.000,497.000,5.000,0
"07/05/06","19:03:13","AMMA06",43842.000,"cc",28316.725,6.00,2831.673,1,6,0.100,23635.000,0.200,16904.000,0.300,2327.000,0.500,592.000,1.000,384.000,5.000,0
"07/05/06","19:03:19","AMMA06",45647.000,"cc",28348.065,6.00,2834.807,1,6,0.100,24215.000,0.200,17471.000,0.300,2693.000,0.500,799.000,1.000,469.000,5.000,0
"07/05/06","19:03:25","AMMA06",46016.000,"cc",28287.631,6.00,2828.763,1,6,0.100,24610.000,0.200,17349.000,0.300,2748.000,0.500,866.000,1.000,443.000,5.000,0
"07/05/06","19:03:31","AMMA06",45490.000,"cc",28311.404,6.00,2831.141,1,6,0.100,24242.000,0.200,17400.000,0.300,2575.000,0.500,831.000,1.000,442.000,5.000,0
"07/05/06","19:03:37","AMMA06",44343.000,"cc",28307.389,6.00,2830.739,1,6,0.100,23734.000,0.200,17117.000,0.300,2479.000,0.500,641.000,1.000,372.000,5.000,0
"07/05/06","19:03:43","AMMA06",44185.000,"cc",28367.416,6.00,2836.742,1,6,0.100,23701.000,0.200,17120.000,0.300,2327.000,0.500,660.000,1.000,377.000,5.000,0
"07/05/06","19:03:49","AMMA06",45723.000,"cc",28293.473,6.00,2829.347,1,6,0.100,24325.000,0.200,17320.000,0.300,2703.000,0.500,881.000,1.000,494.000,5.000,0
"07/05/06","19:03:55","AMMA06",45226.000,"cc",28325.879,6.00,2832.588,1,6,0.100,24117.000,0.200,17278.000,0.300,2598.000,0.500,778.000,1.000,455.000,5.000,0
"07/05/06","19:04:01","AMMA06",44276.000,"cc",28275.570,6.00,2827.557,1,6,0.100,23825.000,0.200,16906.000,0.300,2480.000,0.500,642.000,1.000,423.000,5.000,0
"07/05/06","19:04:07","AMMA06",44075.000,"cc",28377.690,6.00,2837.769,1,6,0.100,23665.000,0.200,17026.000,0.300,2321.000,0.500,657.000,1.000,406.000,5.000,0
"07/05/06","19:04:13","AMMA06",45777.000,"cc",28333.231,6.00,2833.323,1,6,0.100,24406.000,0.200,17434.000,0.300,2735.000,0.500,762.000,1.000,440.000,5.000,0
"07/05/06","19:04:19","AMMA06",48204.000,"cc",28306.393,6.00,2830.639,1,6,0.100,25411.000,0.200,17787.000,0.300,3309.000,0.500,1120.000,1.000,577.000,5.000,0
"07/05/06","19:04:25","AMMA06",45093.000,"cc",28301.309,6.00,2830.131,1,6,0.100,24037.000,0.200,17422.000,0.300,2467.000,0.500,736.000,1.000,431.000,5.000,0
"07/05/06","19:04:31","AMMA06",44841.000,"cc",28264.795,6.00,2826.480,1,6,0.100,23914.000,0.200,17508.000,0.300,2396.000,0.500,628.000,1.000,395.000,5.000,0
"07/05/06","19:04:37","AMMA06",43618.000,"cc",28342.953,6.00,2834.295,1,6,0.100,23467.000,0.200,17000.000,0.300,2239.000,0.500,534.000,1.000,378.000,5.000,0
"07/05/06","19:04:43","AMMA06",43641.000,"cc",28350.811,6.00,2835.081,1,6,0.100,23298.000,0.200,17046.000,0.300,2375.000,0.500,569.000,1.000,353.000,5.000,0
"07/05/06","19:04:49","AMMA06",43885.000,"cc",28269.320,6.00,2826.932,1,6,0.100,23546.000,0.200,16996.000,0.300,2412.000,0.500,576.000,1.000,355.000,5.000,0
"07/05/06","19:04:55","AMMA06",44460.000,"cc",28339.529,6.00,2833.953,1,6,0.100,23652.000,0.200,17278.000,0.300,2493.000,0.500,657.000,1.000,380.000,5.000,0
"07/05/06","19:05:01","AMMA06",44752.000,"cc",28341.768,6.00,2834.177,1,6,0.100,23915.000,0.200,17310.000,0.300,2462.000,0.500,669.000,1.000,396.000,5.000,0
"07/05/06","19:05:07","AMMA06",44823.000,"cc",28297.088,6.00,2829.709,1,6,0.100,23827.000,0.200,17338.000,0.300,2559.000,0.500,734.000,1.000,365.000,5.000,0
"07/05/06","19:05:13","AMMA06",44248.000,"cc",28259.656,6.00,2825.966,1,6,0.100,23749.000,0.200,17070.000,0.300,2425.000,0.500,615.000,1.000,389.000,5.000,0
"07/05/06","19:05:19","AMMA06",44636.000,"cc",28348.084,6.00,2834.809,1,6,0.100,23977.000,0.200,17054.000,0.300,2522.000,0.500,690.000,1.000,393.000,5.000,0
"07/05/06","19:05:25","AMMA06",47139.000,"cc",28335.684,6.00,2833.569,1,6,0.100,25064.000,0.200,17552.000,0.300,3029.000,0.500,997.000,1.000,497.000,5.000,0
"07/05/06","19:05:31","AMMA06",45024.000,"cc",28294.369,6.00,2829.437,1,6,0.100,24010.000,0.200,17170.000,0.300,2670.000,0.500,773.000,1.000,401.000,5.000,0
"07/05/06","19:05:37","AMMA06",45541.000,"cc",28278.697,6.00,2827.870,1,6,0.100,24390.000,0.200,17316.000,0.300,2595.000,0.500,755.000,1.000,485.000,5.000,0
"07/05/06","19:05:43","AMMA06",45396.000,"cc",28308.746,6.00,2830.875,1,6,0.100,24224.000,0.200,17528.000,0.300,2466.000,0.500,730.000,1.000,448.000,5.000,0
"07/05/06","19:05:49","AMMA06",45010.000,"cc",28350.367,6.00,2835.037,1,6,0.100,24012.000,0.200,17345.000,0.300,2483.000,0.500,718.000,1.000,452.000,5.000,0
"07/05/06","19:05:55","AMMA06",44581.000,"cc",28348.262,6.00,2834.826,1,6,0.100,23998.000,0.200,17154.000,0.300,2343.000,0.500,675.000,1.000,411.000,5.000,0
"07/05/06","19:06:01","AMMA06",44371.000,"cc",28308.143,6.00,2830.815,1,6,0.100,23787.000,0.200,17070.000,0.300,2416.000,0.500,709.000,1.000,389.000,5.000,0
"07/05/06","19:06:07","AMMA06",44723.000,"cc",28345.426,6.00,2834.543,1,6,0.100,24032.000,0.200,16954.000,0.300,2588.000,0.500,733.000,1.000,416.000,5.000,0
"07/05/06","19:06:13","AMMA06",44855.000,"cc",28296.473,6.00,2829.648,1,6,0.100,24062.000,0.200,17216.000,0.300,2506.000,0.500,674.000,1.000,396.000,5.000,1.000
"07/05/06","19:06:19","AMMA06",46595.000,"cc",28296.000,6.00,2829.600,1,6,0.100,24680.000,0.200,17610.000,0.300,2861.000,0.500,961.000,1.000,483.000,5.000,0
"07/05/06","19:06:25","AMMA06",45727.000,"cc",28323.057,6.00,2832.306,1,6,0.100,24561.000,0.200,17216.000,0.300,2663.000,0.500,785.000,1.000,502.000,5.000,0
"07/05/06","19:06:31","AMMA06",45413.000,"cc",28261.445,6.00,2826.145,1,6,0.100,24178.000,0.200,17287.000,0.300,2689.000,0.500,823.000,1.000,436.000,5.000,0
"07/05/06","19:06:37","AMMA06",44433.000,"cc",28307.719,6.00,2830.772,1,6,0.100,24156.000,0.200,16949.000,0.300,2322.000,0.500,628.000,1.000,378.000,5.000,0
"07/05/06","19:06:43","AMMA06",44203.000,"cc",28363.324,6.00,2836.333,1,6,0.100,23835.000,0.200,17045.000,0.300,2348.000,0.500,616.000,1.000,359.000,5.000,0
"07/05/06","19:06:49","AMMA06",44537.000,"cc",28337.598,6.00,2833.760,1,6,0.100,23981.000,0.200,16903.000,0.300,2482.000,0.500,734.000,1.000,437.000,5.000,0
"07/05/06","19:06:55","AMMA06",46532.000,"cc",28394.018,6.00,2839.402,1,6,0.100,24767.000,0.200,17467.000,0.300,2897.000,0.500,876.000,1.000,525.000,5.000,0
"07/05/06","19:07:01","AMMA06",45478.000,"cc",28284.322,6.00,2828.432,1,6,0.100,24330.000,0.200,17255.000,0.300,2574.000,0.500,860.000,1.000,459.000,5.000,0
"07/05/06","19:07:07","AMMA06",45756.000,"cc",28247.471,6.00,2824.747,1,6,0.100,24601.000,0.200,17177.000,0.300,2709.000,0.500,823.000,1.000,446.000,5.000,0
"07/05/06","19:07:13","AMMA06",47219.000,"cc",28379.236,6.00,2837.924,1,6,0.100,25904.000,0.200,17526.000,0.300,2597.000,0.500,756.000,1.000,436.000,5.000,0
"07/05/06","19:07:19","AMMA06",45759.000,"cc",28341.481,6.00,2834.148,1,6,0.100,24594.000,0.200,17327.000,0.300,2630.000,0.500,802.000,1.000,406.000,5.000,0
"07/05/06","19:07:25","AMMA06",44959.000,"cc",28285.670,6.00,2828.567,1,6,0.100,24477.000,0.200,17117.000,0.300,2384.000,0.500,614.000,1.000,367.000,5.000,0
"07/05/06","19:07:31","AMMA06",44238.000,"cc",28296.113,6.00,2829.612,1,6,0.100,23928.000,0.200,16809.000,0.300,2408.000,0.500,675.000,1.000,417.000,5.000,1.000
"07/05/06","19:07:37","AMMA06",44756.000,"cc",28361.512,6.00,2836.151,1,6,0.100,24052.000,0.200,17068.000,0.300,2490.000,0.500,714.000,1.000,432.000,5.000,0
"07/05/06","19:07:43","AMMA06",43598.000,"cc",28324.285,6.00,2832.429,1,6,0.100,23664.000,0.200,16814.000,0.300,2181.000,0.500,595.000,1.000,344.000,5.000,0
"07/05/06","19:07:49","AMMA06",45029.000,"cc",28334.481,6.00,2833.448,1,6,0.100,24118.000,0.200,17119.000,0.300,2556.000,0.500,747.000,1.000,489.000,5.000,0
"07/05/06","19:07:55","AMMA06",44109.000,"cc",28263.697,6.00,2826.370,1,6,0.100,23933.000,0.200,16874.000,0.300,2338.000,0.500,591.000,1.000,373.000,5.000,0
"07/05/06","19:08:01","AMMA06",44454.000,"cc",28296.559,6.00,2829.656,1,6,0.100,23959.000,0.200,16997.000,0.300,2359.000,0.500,692.000,1.000,447.000,5.000,0
"07/05/06","19:08:07","AMMA06",45722.000,"cc",28324.438,6.00,2832.444,1,6,0.100,24236.000,0.200,17526.000,0.300,2706.000,0.500,799.000,1.000,455.000,5.000,0
"07/05/06","19:08:13","AMMA06",43790.000,"cc",28266.315,6.00,2826.632,1,6,0.100,23714.000,0.200,16839.000,0.300,2286.000,0.500,611.000,1.000,340.000,5.000,0
"07/05/06","19:08:19","AMMA06",44407.000,"cc",28335.527,6.00,2833.553,1,6,0.100,23974.000,0.200,16951.000,0.300,2420.000,0.500,664.000,1.000,398.000,5.000,0
"07/05/06","19:08:25","AMMA06",44715.000,"cc",28296.783,6.00,2829.679,1,6,0.100,24187.000,0.200,17161.000,0.300,2279.000,0.500,692.000,1.000,396.000,5.000,0
"07/05/06","19:08:31","AMMA06",43660.000,"cc",28319.682,6.00,2831.968,1,6,0.100,23577.000,0.200,16882.000,0.300,2263.000,0.500,601.000,1.000,337.000,5.000,0
"07/05/06","19:08:37","AMMA06",43890.000,"cc",28349.502,6.00,2834.950,1,6,0.100,23682.000,0.200,17050.000,0.300,2212.000,0.500,582.000,1.000,364.000,5.000,0
"07/05/06","19:08:43","AMMA06",43517.000,"cc",28371.287,6.00,2837.129,1,6,0.100,23511.000,0.200,16890.000,0.300,2206.000,0.500,559.000,1.000,351.000,5.000,0
"07/05/06","19:08:49","AMMA06",43677.000,"cc",28236.547,6.00,2823.655,1,6,0.100,23635.000,0.200,16842.000,0.300,2287.000,0.500,536.000,1.000,377.000,5.000,0
"07/05/06","19:08:55","AMMA06",43971.000,"cc",28283.746,6.00,2828.375,1,6,0.100,23894.000,0.200,16879.000,0.300,2252.000,0.500,594.000,1.000,352.000,5.000,0
"07/05/06","19:09:01","AMMA06",44382.000,"cc",28395.613,6.00,2839.562,1,6,0.100,23900.000,0.200,17114.000,0.300,2402.000,0.500,585.000,1.000,381.000,5.000,0
"07/05/06","19:09:07","AMMA06",47345.000,"cc",28309.893,6.00,2830.990,1,6,0.100,24967.000,0.200,17830.000,0.300,3026.000,0.500,1040.000,1.000,482.000,5.000,0
"07/05/06","19:09:13","AMMA06",46831.000,"cc",28290.977,6.00,2829.098,1,6,0.100,24720.000,0.200,17840.000,0.300,2829.000,0.500,910.000,1.000,532.000,5.000,0
"07/05/06","19:09:19","AMMA06",46445.000,"cc",28338.910,6.00,2833.891,1,6,0.100,24467.000,0.200,17857.000,0.300,2818.000,0.500,828.000,1.000,475.000,5.000,0
"07/05/06","19:09:25","AMMA06",46413.000,"cc",28333.297,6.00,2833.330,1,6,0.100,24511.000,0.200,17978.000,0.300,2722.000,0.500,803.000,1.000,399.000,5.000,0
"07/05/06","19:09:31","AMMA06",47190.000,"cc",28309.199,6.00,2830.920,1,6,0.100,24833.000,0.200,18039.000,0.300,2918.000,0.500,900.000,1.000,500.000,5.000,0
"07/05/06","19:09:37","AMMA06",46175.000,"cc",28302.441,6.00,2830.244,1,6,0.100,24516.000,0.200,17634.000,0.300,2750.000,0.500,819.000,1.000,456.000,5.000,0
"07/05/06","19:09:43","AMMA06",47311.000,"cc",28280.262,6.00,2828.026,1,6,0.100,24895.000,0.200,18104.000,0.300,2893.000,0.500,917.000,1.000,502.000,5.000,0
"07/05/06","19:09:49","AMMA06",45901.000,"cc",28357.441,6.00,2835.744,1,6,0.100,24385.000,0.200,17687.000,0.300,2673.000,0.500,702.000,1.000,454.000,5.000,0
"07/05/06","19:09:55","AMMA06",45531.000,"cc",28332.357,6.00,2833.236,1,6,0.100,24396.000,0.200,17337.000,0.300,2617.000,0.500,740.000,1.000,441.000,5.000,0
"07/05/06","19:10:01","AMMA06",44820.000,"cc",28337.143,6.00,2833.714,1,6,0.100,24168.000,0.200,17345.000,0.300,2371.000,0.500,558.000,1.000,378.000,5.000,0
"07/05/06","19:10:07","AMMA06",44345.000,"cc",28283.338,6.00,2828.334,1,6,0.100,23870.000,0.200,17141.000,0.300,2354.000,0.500,590.000,1.000,390.000,5.000,0
"07/05/06","19:10:13","AMMA06",45120.000,"cc",28313.238,6.00,2831.324,1,6,0.100,24200.000,0.200,17413.000,0.300,2499.000,0.500,633.000,1.000,375.000,5.000,0
"07/05/06","19:10:19","AMMA06",45221.000,"cc",28322.035,6.00,2832.204,1,6,0.100,24245.000,0.200,17452.000,0.300,2454.000,0.500,637.000,1.000,433.000,5.000,0
"07/05/06","19:10:25","AMMA06",45217.000,"cc",28314.793,6.00,2831.480,1,6,0.100,24315.000,0.200,17574.000,0.300,2351.000,0.500,623.000,1.000,354.000,5.000,0
"07/05/06","19:10:31","AMMA06",45375.000,"cc",28316.488,6.00,2831.649,1,6,0.100,24133.000,0.200,17605.000,0.300,2570.000,0.500,684.000,1.000,383.000,5.000,0
"07/05/06","19:10:37","AMMA06",46944.000,"cc",28356.775,6.00,2835.678,1,6,0.100,24754.000,0.200,18173.000,0.300,2786.000,0.500,758.000,1.000,473.000,5.000,0
"07/05/06","19:10:43","AMMA06",46162.000,"cc",28296.342,6.00,2829.634,1,6,0.100,24558.000,0.200,17781.000,0.300,2684.000,0.500,713.000,1.000,426.000,5.000,0
"07/05/06","19:10:49","AMMA06",47336.000,"cc",28284.453,6.00,2828.446,1,6,0.100,24870.000,0.200,18143.000,0.300,2975.000,0.500,856.000,1.000,492.000,5.000,0
"07/05/06","19:10:55","AMMA06",51098.000,"cc",28337.479,6.00,2833.748,1,6,0.100,26602.000,0.200,18718.000,0.300,3797.000,0.500,1323.000,1.000,658.000,5.000,0
"07/05/06","19:11:01","AMMA06",47200.000,"cc",28316.783,6.00,2831.679,1,6,0.100,24976.000,0.200,18013.000,0.300,2913.000,0.500,848.000,1.000,450.000,5.000,0
"07/05/06","19:11:07","AMMA06",49875.000,"cc",28359.344,6.00,2835.935,1,6,0.100,26044.000,0.200,18611.000,0.300,3456.000,0.500,1176.000,1.000,588.000,5.000,0
"07/05/06","19:11:13","AMMA06",45415.000,"cc",28253.041,6.00,2825.304,1,6,0.100,24337.000,0.200,17475.000,0.300,2515.000,0.500,677.000,1.000,411.000,5.000,0
"07/05/06","19:11:19","AMMA06",46045.000,"cc",28336.397,6.00,2833.640,1,6,0.100,24529.000,0.200,17793.000,0.300,2579.000,0.500,741.000,1.000,403.000,5.000,0
"07/05/06","19:11:25","AMMA06",45407.000,"cc",28354.557,6.00,2835.456,1,6,0.100,24038.000,0.200,17795.000,0.300,2577.000,0.500,646.000,1.000,351.000,5.000,0
"07/05/06","19:11:31","AMMA06",46974.000,"cc",28340.434,6.00,2834.044,1,6,0.100,24844.000,0.200,17904.000,0.300,2864.000,0.500,893.000,1.000,469.000,5.000,0
"07/05/06","19:11:37","AMMA06",45396.000,"cc",28283.445,6.00,2828.345,1,6,0.100,23892.000,0.200,17815.000,0.300,2554.000,0.500,718.000,1.000,417.000,5.000,0
"07/05/06","19:11:43","AMMA06",44867.000,"cc",28327.133,6.00,2832.713,1,6,0.100,24062.000,0.200,17328.000,0.300,2465.000,0.500,611.000,1.000,401.000,5.000,0
"07/05/06","19:11:49","AMMA06",47495.000,"cc",28322.729,6.00,2832.273,1,6,0.100,25264.000,0.200,17998.000,0.300,2921.000,0.500,852.000,1.000,460.000,5.000,0
"07/05/06","19:11:55","AMMA06",45690.000,"cc",28359.529,6.00,2835.953,1,6,0.100,24379.000,0.200,17615.000,0.300,2615.000,0.500,676.000,1.000,405.000,5.000,0
"07/05/06","19:12:01","AMMA06",45425.000,"cc",28319.647,6.00,2831.965,1,6,0.100,24346.000,0.200,17543.000,0.300,2460.000,0.500,665.000,1.000,411.000,5.000,0
"07/05/06","19:12:07","AMMA06",45621.000,"cc",28242.174,6.00,2824.218,1,6,0.100,24019.000,0.200,17801.000,0.300,2645.000,0.500,750.000,1.000,406.000,5.000,0
"07/05/06","19:12:13","AMMA06",45338.000,"cc",28271.199,6.00,2827.120,1,6,0.100,24384.000,0.200,17513.000,0.300,2459.000,0.500,642.000,1.000,340.000,5.000,0
"07/05/06","19:12:19","AMMA06",46150.000,"cc",28339.217,6.00,2833.922,1,6,0.100,24543.000,0.200,17778.000,0.300,2682.000,0.500,705.000,1.000,442.000,5.000,0
"07/05/06","19:12:25","AMMA06",45967.000,"cc",28296.832,6.00,2829.683,1,6,0.100,24461.000,0.200,17654.000,0.300,2695.000,0.500,751.000,1.000,406.000,5.000,0
"07/05/06","19:12:31","AMMA06",46356.000,"cc",28289.920,6.00,2828.992,1,6,0.100,24679.000,0.200,17787.000,0.300,2700.000,0.500,761.000,1.000,429.000,5.000,0
"07/05/06","19:12:37","AMMA06",45665.000,"cc",28306.250,6.00,2830.625,1,6,0.100,24499.000,0.200,17659.000,0.300,2427.000,0.500,697.000,1.000,383.000,5.000,0
"07/05/06","19:12:43","AMMA06",46343.000,"cc",28343.697,6.00,2834.370,1,6,0.100,24563.000,0.200,17899.000,0.300,2714.000,0.500,742.000,1.000,425.000,5.000,0
"07/05/06","19:12:49","AMMA06",45577.000,"cc",28339.115,6.00,2833.912,1,6,0.100,24109.000,0.200,17900.000,0.300,2553.000,0.500,659.000,1.000,356.000,5.000,0
"07/05/06","19:12:55","AMMA06",46018.000,"cc",28347.211,6.00,2834.721,1,6,0.100,24393.000,0.200,18045.000,0.300,2536.000,0.500,654.000,1.000,390.000,5.000,0
"07/05/06","19:13:01","AMMA06",49467.000,"cc",28375.262,6.00,2837.526,1,6,0.100,25723.000,0.200,18826.000,0.300,3306.000,0.500,1075.000,1.000,537.000,5.000,0
"07/05/06","19:13:07","AMMA06",45704.000,"cc",28310.338,6.00,2831.034,1,6,0.100,24066.000,0.200,18041.000,0.300,2539.000,0.500,667.000,1.000,391.000,5.000,0
"07/05/06","19:13:13","AMMA06",50599.000,"cc",28298.910,6.00,2829.891,1,6,0.100,26143.000,0.200,19055.000,0.300,3537.000,0.500,1243.000,1.000,621.000,5.000,0
"07/05/06","19:13:19","AMMA06",48860.000,"cc",28328.268,6.00,2832.827,1,6,0.100,25417.000,0.200,18505.000,0.300,3254.000,0.500,1125.000,1.000,559.000,5.000,0
"07/05/06","19:13:25","AMMA06",46828.000,"cc",28258.084,6.00,2825.809,1,6,0.100,24665.000,0.200,18144.000,0.300,2779.000,0.500,797.000,1.000,443.000,5.000,0
"07/05/06","19:13:31","AMMA06",47181.000,"cc",28317.182,6.00,2831.718,1,6,0.100,24828.000,0.200,18173.000,0.300,2847.000,0.500,846.000,1.000,487.000,5.000,0
"07/05/06","19:13:37","AMMA06",47543.000,"cc",28287.236,6.00,2828.724,1,6,0.100,24717.000,0.200,18609.000,0.300,2866.000,0.500,887.000,1.000,464.000,5.000,0
"07/05/06","19:13:43","AMMA06",48577.000,"cc",28314.305,6.00,2831.431,1,6,0.100,25168.000,0.200,18668.000,0.300,3120.000,0.500,1064.000,1.000,557.000,5.000,0
"07/05/06","19:13:49","AMMA06",48857.000,"cc",28341.416,6.00,2834.142,1,6,0.100,25551.000,0.200,18572.000,0.300,3159.000,0.500,1025.000,1.000,550.000,5.000,0
"07/05/06","19:13:55","AMMA06",49915.000,"cc",28327.256,6.00,2832.726,1,6,0.100,26827.000,0.200,18585.000,0.300,3041.000,0.500,975.000,1.000,486.000,5.000,1.000
"07/05/06","19:14:01","AMMA06",46502.000,"cc",28311.424,6.00,2831.143,1,6,0.100,24760.000,0.200,17881.000,0.300,2678.000,0.500,759.000,1.000,424.000,5.000,0
"07/05/06","19:14:07","AMMA06",47299.000,"cc",28335.916,6.00,2833.592,1,6,0.100,24934.000,0.200,18089.000,0.300,2949.000,0.500,884.000,1.000,443.000,5.000,0
"07/05/06","19:14:13","AMMA06",48111.000,"cc",28354.322,6.00,2835.432,1,6,0.100,25623.000,0.200,18360.000,0.300,2811.000,0.500,867.000,1.000,450.000,5.000,0